KLOM

Details ICAO KLOM (BBX)
Name Wings Field
Region United States
Timezone America/New_York (UTC-5.0)
Plans Departing 11
Arriving 7
Stats Elevation 301 ft / 92 m (AMSL)
Location 40.137564° -75.265131°
Runways 1
Magnetic Variation 12.104° W
Sunrise 2018-01-18 12:21:15 UTC / 2018-01-18 07:21:15 Local
Sunset 2018-01-18 22:03:55 UTC / 2018-01-18 17:03:55 Local
Advertisement - Login to hide

Runways

ID Width Length Bearing (true) Bearing (mag) Surface Threshold Offset Overrun Length
06 75 ft / 23 m 3,703 ft / 1,129 m 53.00° 65.10° Asphalt 177 ft / 54 m 102 ft / 31 m
24 75 ft / 23 m 3,703 ft / 1,129 m 233.01° 245.11° Asphalt 0 ft / 0 m 0 ft / 0 m

Map

Weather


0- 5 10 15 20 25 30 35+ Temperature / ° C

Clouds and Precipitation
Forecast for 2018-01-18 12:00 UTC. Updated 14 minutes ago

Ground ~20,000 ft ~40,000 ft Winds

METAR

KLOM 180935Z AUTO 30003KT 10SM CLR M10/M13 A3009 RMK AO1

TAF

Not found

Frequencies

Recorded 118.92 MHz WX AWOS-3
Clearance 118.55 MHz CLNC DEL
Unicom 123.00 MHz CTAF/UNICOM
Approach 126.85 MHz PHILADELPHIA APP/DEP
Warning: Do not use this data for real-world aviation or navigation. No guarantee of current accuracy is given.